Página principal
METAR-TAF:

METAR-TAF

Aeroportos :

Mackinac Island Airport

Mackinac Island, Michigan, Estados Unidos

latitude: 45-51-54N, longitude: 084-38-14W, altura: 226 m

Observação actual do tempo

O boletim foi feito há 21 horas e 5 minutos, às 00:15 UTC
Vento 5 kt de este
Temperatura 21°C
Humidade 94%
Pressão 1015 hPa
Visibilidade: 6.4 km
Nuvens dispersasa uma altura de 5000 ft
Nuvens fragmentadasa uma altura de 6000 ft
Encobertoa uma altura de 9000 ft
neblina

METAR: KMCD 210015Z AUTO 09005KT 4SM BR SCT050 BKN060 OVC090 21/20 A2996 RMK AO2 T02080199

Hora: 17:20 (21:20 UTC)


TAF: em falta

Observações e previsões do tempo de mais de 4000 aeroportos (mensagens METAR e TAF).

As estações disponíveis são os pontos amarelos e vermelhos sobre o mapa.

Mova o rato sobre o mapa para ver o nome da estação.

Depois clique no ponto para visualizar as observações e previsões meteorológicas.

Para alterar o mapa : clique nos botões verdes com uma cruz preta para aumentar o zoom; no botão verde com uma pitada de zoom; ou nas setas verdes para mapas adjacentes.


METAR-TAF: